Vorticity
nan nan nan nan nan nan nan nan nan nan nan nan nan nan nan nan nan nan nan nan nan nan nan nan nan nan nan nan nan nan nan nan nan nan nan nan nan nan nan nan nan nan nan nan nan nan nan nan nan
nan 9 9 9 6 4 8 7 8 8 4 6 6 4 7 9 9 9 7 12 9 6 5 7 7 7 6 5 5 5 6 6 6 5 5 5 4 5 5 4 4 5 6 6 5 4 3 4 nan
nan 8 6 8 4 3 7 2 4 6 7 8 6 8 8 3 7 7 7 11 8 6 7 9 7 5 6 6 5 5 5 5 6 5 5 5 5 5 4 4 4 4 5 5 4 3 4 5 nan
nan 6 8 8 3 4 3 2 3 5 8 8 7 5 7 8 12 8 9 5 8 9 8 8 7 6 6 6 6 6 5 5 5 6 5 5 5 5 5 5 5 4 4 5 5 6 5 5 nan
nan 9 8 5 7 6 6 8 4 6 12 6 7 5 3 8 11 8 8 4 7 10 10 9 7 6 6 6 6 6 6 6 6 5 5 6 5 5 5 5 4 5 5 5 6 5 5 6 nan
nan 9 6 7 5 5 7 8 12 15 10 4 5 7 5 9 7 7 6 6 6 7 8 9 8 6 6 6 6 6 7 6 6 6 6 5 5 5 6 5 5 5 5 6 5 5 6 6 nan
nan 8 6 5 5 4 7 6 6 14 6 8 8 10 6 7 6 8 9 6 6 6 7 7 8 7 7 7 7 7 7 6 6 6 6 6 5 6 6 6 5 5 5 6 6 6 6 6 nan
nan 5 8 7 8 6 3 3 5 3 8 11 11 8 8 8 6 5 8 9 6 6 6 7 7 7 7 8 8 7 7 8 7 7 6 7 7 6 6 6 6 6 5 5 6 6 7 6 nan
nan 7 8 6 6 2 -3 6 6 2 8 6 9 11 12 8 4 4 3 8 7 7 6 6 7 7 7 8 9 9 8 6 7 8 6 4 6 9 8 8 7 7 6 6 6 6 6 7 nan
nan 5 8 4 -1 1 4 3 3 6 6 8 3 5 8 9 11 7 4 5 6 5 8 7 7 7 7 7 8 7 7 8 9 9 8 7 6 8 9 10 10 8 7 8 7 7 6 4 nan
nan 3 3 4 7 9 6 9 10 9 9 6 4 4 3 11 11 4 5 6 8 7 9 10 7 8 7 7 6 7 8 8 9 10 8 7 7 6 7 8 9 11 9 7 9 7 8 7 nan
nan 8 5 7 6 6 8 8 7 7 3 8 9 5 5 7 7 6 5 6 11 16 11 9 9 9 4 7 9 8 7 7 7 8 8 6 7 7 7 7 8 7 10 8 7 7 8 7 nan
nan 6 6 8 7 6 6 4 10 6 9 4 4 6 7 8 5 9 9 9 9 10 11 9 10 9 11 10 11 11 9 6 7 8 7 6 7 7 7 7 7 7 8 8 7 7 7 7 nan
nan 4 5 7 11 11 7 2 12 10 7 4 6 6 7 9 9 9 10 9 8 6 7 8 7 9 13 8 10 9 9 10 10 9 9 6 6 7 6 7 7 7 7 8 8 7 7 7 nan
nan 7 13 13 11 3 10 5 12 7 11 9 7 13 12 9 11 13 10 10 8 7 8 7 5 7 8 8 8 9 10 9 9 9 11 9 6 7 6 7 8 7 8 8 7 7 8 7 nan
nan 11 11 11 7 9 10 14 14 4 9 13 12 9 14 16 18 14 11 7 6 6 6 8 7 8 6 8 9 9 9 9 9 11 11 10 12 8 6 7 7 9 8 8 8 7 8 8 nan
nan 9 4 11 7 7 3 12 -4 4 10 8 8 6 8 17 22 10 10 8 8 8 7 6 5 7 8 9 8 7 9 10 9 9 9 11 13 13 9 7 8 8 8 9 8 7 8 8 nan
nan 4 4 2 6 6 2 3 -0 10 4 3 4 8 15 29 13 7 7 6 8 7 7 7 7 6 9 9 9 9 7 6 8 7 7 10 10 11 13 12 10 8 8 6 9 9 8 8 nan
nan 3 3 2 6 4 8 8 9 3 1 4 8 7 22 25 9 8 7 8 7 6 6 7 7 8 9 8 9 9 6 8 7 7 6 8 9 9 12 13 11 9 10 10 7 6 6 8 nan
nan 3 6 6 10 9 9 11 7 11 10 11 9 14 16 7 7 7 6 6 6 7 5 6 7 8 9 10 10 8 8 9 7 7 6 8 7 7 8 8 11 12 10 9 9 8 4 6 nan
nan 11 15 15 15 8 9 12 6 18 12 11 10 27 24 8 0 1 7 8 6 6 8 6 6 8 8 10 10 9 11 8 6 5 7 6 6 8 8 8 8 9 13 12 9 11 8 7 nan
nan 14 17 15 9 12 11 7 15 15 8 10 15 26 15 7 8 7 6 7 8 6 7 6 8 9 7 8 9 10 10 8 7 7 6 5 7 9 9 9 9 9 9 12 11 11 13 12 nan
nan 11 7 8 6 13 9 11 10 7 18 20 27 13 6 7 7 8 8 5 6 8 7 7 6 8 8 9 9 9 8 8 8 8 8 10 11 10 8 9 9 9 7 12 13 10 9 6 nan
nan 7 5 8 8 8 12 5 5 11 17 8 16 14 9 6 7 6 6 7 7 9 7 6 7 6 8 10 9 7 8 10 10 9 11 9 9 9 9 10 10 10 8 9 14 14 8 5 nan
nan 7 7 8 11 6 6 8 3 6 15 27 18 1 8 11 8 5 6 6 6 8 8 7 7 7 9 8 8 8 10 11 10 10 8 9 11 9 8 10 10 8 8 9 14 13 10 8 nan
nan 7 9 7 6 9 9 9 8 5 7 26 17 10 8 7 7 8 7 8 7 6 6 8 8 7 8 9 9 8 11 12 9 9 10 11 8 7 8 10 9 10 11 9 11 12 11 10 nan
nan 8 8 12 8 10 10 8 2 3 6 7 4 7 8 10 8 7 5 6 8 7 6 7 8 8 8 9 10 10 9 9 8 10 12 9 9 8 9 10 11 14 15 12 11 12 11 9 nan
nan 6 6 11 11 7 8 8 5 5 8 7 4 7 8 7 7 7 6 6 9 8 7 8 9 8 9 10 9 8 9 11 11 11 10 10 10 9 10 12 12 13 18 17 11 9 11 10 nan
nan 5 7 10 8 8 13 8 8 9 10 7 10 7 5 9 9 7 7 6 6 8 8 8 7 8 9 9 9 10 11 12 12 10 10 11 10 11 11 12 13 13 22 22 12 10 10 10 nan
nan nan nan nan nan nan nan nan nan nan nan nan nan nan nan nan nan nan nan nan nan nan nan nan nan nan nan nan nan nan nan nan nan nan nan nan nan nan nan nan nan nan nan nan nan nan nan nan nan
CAPE
0 0 0 0 0 0 0 0 0 0 0 0 0 0 0 0 0 0 0 945 1628 1467 1610 1778 1897 1951 2007 1970 1883 1913 2077 2131 2061 2066 2009 1978 1992 2069 2129 2239 2434 2713 2812 2428 2264 2219 2240 2375 2120
0 0 0 0 0 0 0 0 0 0 0 0 0 0 0 0 0 0 0 720 1582 1520 1538 1692 1871 2018 1989 1822 1789 1973 2258 2245 2185 2183 2162 2061 2077 2089 2060 2098 2253 2647 2834 2505 2292 2177 2288 2546 2013
0 0 0 0 0 0 0 0 0 0 0 0 0 0 0 0 0 0 0 1303 1750 1661 1510 1559 1791 1986 2041 1924 1779 1890 2175 2141 2136 2173 2304 2222 2229 2273 2102 1932 2186 2745 2950 2622 2202 2315 2760 2218 1906
0 0 0 0 0 0 0 0 0 0 0 0 0 0 0 0 0 0 411 1077 1973 1910 1498 1497 1542 1776 1960 2036 1985 1866 1991 1964 1990 2106 2321 2348 2386 2441 2250 1944 2234 2706 3122 3100 2744 2789 2534 2078 1864
0 0 0 0 0 0 0 0 0 0 0 0 0 0 0 0 0 75 730 686 2145 2037 1520 1325 1437 1629 1800 1970 2048 2040 1902 1856 1916 2082 2222 2283 2379 2409 2152 1941 2188 2592 2943 2990 3173 2639 2177 2070 1953
0 0 0 0 0 0 0 0 0 0 0 0 0 0 0 0 0 0 755 781 1998 1915 1560 1305 1389 1568 1680 1807 1880 1979 1972 1876 1886 2023 2172 2264 2211 2135 2011 1926 2038 2180 2422 2452 2503 2231 2182 2058 1709
0 0 0 0 0 0 0 0 0 0 0 0 0 0 0 0 0 0 44 1310 2107 1910 1508 1382 1421 1510 1505 1591 1726 1877 1952 1940 1904 1947 2090 2209 2064 1926 1870 1877 1934 2013 2178 2368 2296 2116 2069 1912 1644
0 0 0 0 0 0 0 0 0 0 0 0 0 0 0 0 0 0 0 1109 2047 1966 1536 1345 1322 1360 1316 1297 1475 1728 1881 1900 1863 1849 1949 2050 1953 1851 1808 1747 1833 1956 2030 2258 2190 2009 2017 1640 1276
0 0 0 0 0 0 0 0 0 0 0 0 0 0 0 0 0 0 0 0 1857 2191 1765 1367 1339 1227 1096 1110 1212 1454 1791 1855 1824 1801 1815 1759 1861 1807 1790 1654 1646 1810 1857 1947 2031 1941 1815 1587 1181
0 0 0 0 0 0 0 0 0 0 0 0 0 0 0 0 0 0 0 0 859 1912 2048 1870 1548 1347 1107 1361 1184 1122 1417 1566 1683 1841 1791 1790 1753 1732 1909 1755 1569 1618 1632 1641 1758 1786 1616 1316 967
0 0 0 0 0 0 0 0 0 0 0 0 0 0 0 0 0 0 0 0 0 6 1670 2017 1994 1589 1393 1641 993 894 951 974 1176 1501 1456 1611 1434 1736 1755 1641 1449 1248 1362 1359 1410 1384 1224 1070 848
0 0 0 0 0 0 0 0 0 0 0 0 0 0 0 0 0 0 0 0 0 90 1691 1795 1683 1791 1710 1605 1233 941 911 783 904 1009 1234 1372 1502 1690 1847 1743 1469 1232 1293 1359 1375 1361 1197 996 866
0 0 0 0 0 0 0 0 0 0 0 0 0 0 0 0 0 0 0 0 0 0 322 871 784 389 765 1634 1673 1683 1275 985 903 870 1051 1334 1522 1563 1759 1811 1519 1367 1290 1344 1268 1201 1090 1040 986
0 0 0 0 0 0 0 0 0 0 0 0 0 0 0 0 0 0 0 0 0 0 0 0 0 0 0 0 0 90 739 1023 979 1076 980 1224 1246 1359 1414 1693 1606 1491 1407 1300 1272 1147 1126 1099 1070
0 0 0 0 0 0 0 0 0 0 0 0 0 0 0 0 0 0 0 0 0 0 0 0 0 0 0 0 0 0 0 0 149 984 996 1133 1363 1305 1354 1284 1357 1680 1567 1382 1296 1134 1023 1063 985
0 0 0 0 0 0 0 0 0 0 0 0 0 0 0 0 0 0 0 0 0 0 0 0 0 0 0 0 0 0 0 0 0 0 4 668 1395 1488 1118 1265 1192 1092 1573 1471 1414 1276 1032 1089 1038
0 0 0 0 0 0 0 0 0 0 0 0 0 0 0 0 0 0 0 0 0 0 0 0 0 0 0 0 0 0 0 0 0 0 0 0 207 904 1150 1128 898 698 893 1184 1408 1345 1100 995 910
0 0 0 0 0 0 0 0 0 0 0 0 0 0 0 0 0 0 0 0 0 0 0 0 0 0 0 0 0 0 0 0 0 0 0 0 0 0 463 942 1046 725 484 699 899 1297 1075 1005 966
0 0 0 0 0 0 0 0 0 0 0 0 0 0 0 0 0 0 0 0 0 0 0 0 0 0 0 0 0 0 0 0 0 0 0 0 0 0 0 134 918 748 842 883 650 723 656 647 723
0 0 0 0 0 0 0 0 0 0 0 0 0 0 1 0 0 0 0 0 0 0 0 0 0 0 0 0 0 0 0 0 0 0 0 0 0 0 0 0 0 854 996 764 438 730 712 774 492
0 0 0 0 0 0 0 0 0 0 0 0 0 0 42 0 0 0 0 0 0 0 0 0 0 0 0 0 0 0 0 0 0 0 0 0 0 0 0 0 0 0 387 1143 1000 416 613 562 246
0 0 0 0 0 0 0 0 0 0 0 0 0 0 0 0 0 0 0 0 0 0 0 0 0 0 0 0 0 0 0 0 0 0 0 0 0 0 0 0 0 0 0 222 948 442 432 84 0
0 0 0 0 0 0 0 0 0 0 0 0 0 0 0 0 0 0 0 0 0 0 0 0 0 0 0 0 0 0 0 0 0 0 0 0 0 0 0 0 0 0 0 0 695 334 0 0 0
0 0 0 0 0 0 0 0 0 0 0 8 0 1 0 0 0 0 0 0 0 0 0 0 0 0 0 0 0 1 0 0 1 1 2 2 3 0 0 1 1 2 2 0 253 341 25 0 0
0 0 0 0 0 0 0 0 0 12 5 14 0 1 9 0 0 0 0 0 0 0 0 0 0 0 0 0 0 0 0 3 5 5 6 6 4 4 5 5 7 2 2 3 26 19 0 0 0
0 0 0 0 0 0 0 0 9 15 8 8 14 12 10 8 0 0 0 0 0 0 0 0 0 0 0 0 0 1 1 5 6 6 6 6 7 8 9 7 11 9 4 3 4 216 56 0 102
0 0 0 0 0 0 0 0 0 7 5 6 7 10 14 9 1 0 0 0 0 0 0 0 0 0 0 0 1 4 5 5 6 5 9 10 8 8 8 6 8 5 6 2 4 87 132 225 271
0 0 0 0 0 0 0 1 0 5 3 4 2 1 1 5 3 1 0 0 0 0 0 0 0 2 3 2 3 5 3 6 7 8 10 10 8 8 6 6 8 8 9 0 0 0 240 235 138
0 0 5 0 0 5 3 0 2 2 8 6 4 2 0 0 0 0 0 1 0 0 0 0 0 1 2 2 1 0 0 2 7 9 9 9 9 9 9 8 10 9 6 1 0 0 66 227 194
0 0 13 0 0 1 0 5 10 6 19 0 1 0 0 0 0 0 0 0 0 0 2 1 0 1 2 4 2 0 0 0 4 8 7 8 8 9 9 9 10 8 4 2 24 0 38 125 154